Weather in Esman

Ukraine / Sumi District     51°48′33″N   34°02′29″E
temp.,
°C
wind,
m/s
gust,
m/s
humid.,
%
clouds,
%
prec.,
mm/h
press.,
hPa
HPBL,
m
26 october, tue
tue2600:000sw34735 0.0 103361
03:00−1ssw367640 0.0 103396
06:00−1ssw3876100 0.0 1032144
09:00+1ssw41065100 0.0 1031258
12:00+6sw6947100 0.0 1030589
15:00+8sw694314 0.0 1028732
18:00+4ssw4105946 0.0 1028193
21:00+3ssw5136259 0.0 1027288
27 october, wed
wed2700:00+3ssw51465100 0.0 1026289
03:00+2ssw5146848 0.0 1025282
06:00+2ssw6147148 0.0 1024315
09:00+3sw6157451 0.0 1023465
12:00+8sw7116594 0.0 1021679
15:00+7wsw51068100 0.2 1021547
18:00+5wsw38803 0.0 1022240
21:00+4wsw3687100 0.0 1022116
28 october, thu
thu2800:00+5wsw389299 0.0 1021164
03:00+5wsw41193100 0.0 1020234
06:00+6sw51291100 0.1 1019330
09:00+7wsw61488100 0.3 1018461
12:00+8w61285100 0.0 1018574
15:00+10w61286100 0.3 1018581
18:00+9wnw51291100 0.1 1019511
21:00+10nw51187100 0.1 1020511
29 october, fri
fri2900:00+8nw5119549 0.1 1022375
03:00+6nnw379457 0.1 1024131
06:00+7nne389191 0.0 1026266
09:00+7ene378190 0.0 1029375
12:00+9e346136 0.0 1030962
15:00+10e23565 0.0 1031932
18:00+7ese22695 0.0 103118
21:00+5se34745 0.0 103261
30 october, sat
sat3000:00+4se35775 0.0 103377
03:00+3sse368060 0.0 1034112
06:00+2sse378315 0.0 1034126
09:00+4s49775 0.0 1034229
12:00+9s68577 0.0 1033502
15:00+11s58515 0.0 1032694
18:00+7s410635 0.0 1032180
21:00+6s412635 0.0 1032231